Regional Weather Roundup
Issued by NWS

Home | Current Version | Previous Version | Text Only | Print | Product List | Glossary On
Versions: 1 2 3 4 5 6 7 8 9 10 11 12 13 14 15 16 17 18 19 20 21 22 23 24 25 26 27 28 29 30 31 32 33 34 35 36 37 38 39 40 41 42 43 44 45 46 47 48 49 50
000
ASUS43 KDTX 230201
RWRMI
NATIONAL WEATHER SERVICE DETROIT/PONTIAC MI
1000 PM EDT WED OCT 22 2014

NOTE: "FAIR" INDICATES FEW OR NO CLOUDS BELOW 12,000 FEET WITH NO
SIGNIFICANT WEATHER AND/OR OBSTRUCTION TO VISIBILITY.

MIZ047>049-052>055-059>063-066>070-074>076-081>083-230300-
SOUTHEAST LOWER MICHIGAN

CITY           SKY/WX    TMP DP  RH WIND       PRES   REMARKS
ADRIAN         CLEAR     40  37  89 N5        30.29S
ALMA           CLOUDY    43  37  78 CALM      30.31S
ANN ARBOR      CLEAR     43  36  76 N6        30.29R
BAD AXE        CLEAR     32  31  99 CALM      30.31F
CARO           CLEAR     35  34  98 CALM      30.31F
DETROIT CITY   CLEAR     46  38  73 N6        30.30S
DETROIT        PTCLDY    44  38  79 N5        30.29S
FLINT          CLEAR     42  37  82 NW3       30.31S
GROSSE ILE     CLEAR     46  41  81 NE7       30.27S
HILLSDALE      CLEAR     34  34 100 CALM      30.28S
HOWELL         CLEAR     40  37  90 CALM      30.30R

CITY           SKY/WX    TMP DP  RH WIND       PRES   REMARKS
JACKSON        CLEAR     37  35  92 CALM      30.29S
LAMBERTVILLE   MOCLDY    46  41  81 N3        30.28S
LANSING        CLOUDY    44  37  76 NE5       30.31F
LAPEER         FAIR      39  36  91 CALM      30.31S
MASON          MOCLDY    37  36  94 CALM      30.30S
MT. CLEMENS    CLEAR     42  39  91 N6        30.27S
PONTIAC        CLEAR     41  37  86 N5        30.28S
PORT HOPE        N/A     46  39  76 NE7       30.29F
PORT HURON     CLEAR     39  37  93 NW3       30.29S
TRI CITIES     CLEAR     43  36  76 CALM      30.32S
TROY           CLEAR     46  39  78 NE6       30.30F
SAGINAW HB     CLEAR     41  37  87 CALM      30.31S
$$
MIZ043>046-050>051-056>058-064>065-071>073-077>080-230300-
SOUTHWEST LOWER MICHIGAN

CITY           SKY/WX    TMP DP  RH WIND       PRES   REMARKS
BATTLE CREEK   CLEAR     43  36  76 E3        30.29S
BENTON HARBOR  CLEAR     35  34  96 E3        30.28F
BIG RAPIDS     CLEAR     34  34 100 CALM      30.29S
COLDWATER      CLEAR     37  37  97 CALM      30.29S FOG
FREMONT        FAIR      37  34  90 SE3       30.29S
HOLLAND        CLEAR     41  36  82 CALM      30.30S
GRAND RAPIDS   CLEAR     38  35  89 E3        30.30F
IONIA          CLOUDY    42  37  83 E3        30.29S
KALAMAZOO      CLEAR     38  35  89 CALM      30.30S
LUDINGTON      CLEAR     29  28  96 CALM      30.29S FOG
MARSHALL       CLEAR     35  34  95 CALM      30.29S
MOUNT PLEASANT CLEAR     35  33  96 CALM      30.30S
MUSKEGON       CLEAR     37  33  85 SE3       30.30S
SOUTH HAVEN    CLEAR     38  37  94 CALM      30.29S
$$
MIZ016>042-230300-
NORTHERN LOWER MICHIGAN

CITY           SKY/WX    TMP DP  RH WIND       PRES   REMARKS
ALPENA         CLEAR     31  29  92 CALM      30.31S
BEAVER ISLAND  CLEAR     31  31  99 CALM      30.29S
BELLAIRE       CLEAR     32  31  96 CALM      30.30S FOG
CADILLAC       CLEAR     29  28  98 NW3       30.28R
CHARLEVOIX     CLEAR     34  34 100 CALM      30.33R
FRANKFORT      CLEAR     32  29  90 CALM      30.28F
GAYLORD        CLEAR     35  30  82 CALM      30.28S
GRAYLING       CLEAR     29  28  97 CALM      30.30S
HARBOR SPRINGS CLEAR     36  33  90 CALM      30.30S
HOUGHTON LAKE  CLEAR     31  28  89 CALM      30.30R
MANISTEE       CLEAR     30  27  86 E3        30.29S
OSCODA         CLEAR     31  29  94 CALM      30.31S
PELLSTON       CLEAR     31  28  89 CALM      30.30S
TRAVERSE CITY  CLEAR     34  31  88 CALM      30.28S
$$
MIZ007>008-015-230300-
EASTERN UPPER MICHIGAN

CITY           SKY/WX    TMP DP  RH WIND       PRES   REMARKS
KINROSS        CLEAR     37  36  93 SE3       30.29S
MACKINAC ISLAN CLEAR     41  34  75 SE7       30.29S
NEWBERRY       CLEAR     32  31  95 S5        30.27S WCI  28
S. S. MARIE    CLEAR     38  30  73 CALM      30.29S
MUNISING         N/A     39  33  79 S8        30.24S WCI  33
$$
MIZ004>006-011>014-085-230300-
CENTRAL UPPER MICHIGAN

CITY           SKY/WX    TMP DP  RH WIND       PRES   REMARKS
MANISTIQUE     CLEAR     41  36  81 S8        30.27F
ESCANABA       PTCLDY    41  36  81 S5        30.26S
MENOMINEE      CLEAR     39  36  87 S5        30.26S
SAWYER-GWINN   CLEAR     36  34  93 S9        30.23S WCI  29
$$
MIZ001>003-009>011-084-230300-
WESTERN UPPER MICHIGAN

CITY           SKY/WX    TMP DP  RH WIND       PRES   REMARKS
IRON MOUNTAIN  CLEAR     37  33  85 SE6       30.22S WCI  32
HOUGHTON       CLEAR     43  33  68 SE10      30.14F
COPPER HARBOR    N/A     46  38  73 SW8       30.15F
IRONWOOD       CLOUDY    52  30  43 SE6G16    30.08F
$$

ABBREVIATIONS USED IN REMARKS
   TC - TEMPERATURE IN CELSIUS
  WCI - WIND CHILL INDEX
   HX - HEAT INDEX
  VSB - VISIBILITY




USA.gov is the U.S. government's official web portal to all federal, state and local government web resources and services.